FW5801 Weather Reports


Display with metric or nautical units.
time (UTC)temp
F
wind
direction
speed
MPH
gust
MPH
rain 1hr
in
rain 24hr
in
rain mn
in
humidity
%
barometer
mb
20260508104600 45 113 4.0 9.0 0.00 0.00 0.00 71 1013.8
20260508104100 45 129 3.0 10.0 0.00 0.00 0.00 70 1013.8
20260508103559 45 126 5.0 10.0 0.00 0.00 0.00 70 1013.7
20260508103100 45 124 4.0 9.0 0.00 0.00 0.00 70 1013.7
20260508102559 45 120 3.0 9.0 0.00 0.00 0.00 70 1013.7
20260508102102 45 127 4.0 10.0 0.00 0.00 0.00 70 1013.7
20260508101604 45 121 4.0 10.0 0.00 0.00 0.00 70 1013.7
20260508101100 45 118 4.0 10.0 0.00 0.00 0.00 70 1013.6
20260508100602 45 109 4.0 10.0 0.00 0.00 0.00 70 1013.6
20260508100129 45 126 3.0 8.0 0.00 0.00 0.00 70 1013.6
20260508095601 45 125 3.0 8.0 0.00 0.00 0.00 70 1013.6
20260508095100 45 113 4.0 8.0 0.00 0.00 0.00 70 1013.5
20260508094600 45 111 4.0 9.0 0.00 0.00 0.00 70 1013.5
20260508094100 45 109 4.0 9.0 0.00 0.00 0.00 70 1013.4
20260508093600 45 102 4.0 8.0 0.00 0.00 0.00 70 1013.6
20260508093058 45 117 3.0 9.0 0.00 0.00 0.00 70 1013.6
20260508092559 45 111 3.0 9.0 0.00 0.00 0.00 69 1013.6
20260508092059 45 112 3.0 9.0 0.00 0.00 0.00 69 1013.7
20260508091613 45 111 3.0 9.0 0.00 0.00 0.00 68 1013.7
20260508091101 45 109 3.0 9.0 0.00 0.00 0.00 68 1013.6
20260508090600 45 103 2.0 9.0 0.00 0.00 0.00 68 1013.7
20260508090059 45 107 3.0 8.0 0.00 0.00 0.00 68 1013.8
20260508085600 45 121 2.0 9.0 0.00 0.00 0.00 68 1013.8
20260508085059 46 113 3.0 9.0 0.00 0.00 0.00 68 1013.7
20260508084557 46 116 2.0 8.0 0.00 0.00 0.00 68 1013.7
20260508084100 46 126 4.0 8.0 0.00 0.00 0.00 68 1013.8
20260508083600 46 121 3.0 8.0 0.00 0.00 0.00 68 1013.7
20260508083059 46 117 2.0 7.0 0.00 0.00 0.00 67 1013.6
20260508082556 46 128 2.0 7.0 0.00 0.00 0.00 67 1013.6
20260508082056 46 130 3.0 7.0 0.00 0.00 0.00 68 1013.7
20260508081613 46 0 3.0 8.0 0.00 0.00 0.00 67 1013.7
20260508081055 46 119 2.0 8.0 0.00 0.00 0.00 67 1013.7
20260508080601 46 123 3.0 9.0 0.00 0.00 0.00 66 1013.7
20260508080101 47 128 2.0 9.0 0.00 0.00 0.00 66 1013.7
20260508075600 47 0 4.0 9.0 0.00 0.00 0.00 66 1013.7
20260508075101 47 125 2.0 11.0 0.00 0.00 0.00 65 1013.7
20260508074608 47 148 4.0 11.0 0.00 0.00 0.00 65 1013.7
20260508074100 47 131 2.0 10.0 0.00 0.00 0.00 65 1013.7
20260508073559 48 117 4.0 10.0 0.00 0.00 0.00 64 1013.6
20260508073105 48 117 3.0 14.0 0.00 0.00 0.00 64 1013.7
20260508072556 48 136 4.0 14.0 0.00 0.00 0.00 63 1013.8
20260508072103 48 124 5.0 14.0 0.00 0.00 0.00 63 1013.7
20260508071558 48 132 4.0 11.0 0.00 0.00 0.00 63 1013.7
20260508071101 48 131 3.0 11.0 0.00 0.00 0.00 63 1013.9
20260508070600 49 126 3.0 11.0 0.00 0.00 0.00 63 1013.9
20260508070100 49 128 2.0 16.0 0.00 0.00 0.00 63 1013.9
20260508065558 49 138 7.0 16.0 0.00 0.00 0.00 63 1013.9
20260508065059 48 112 3.0 12.0 0.00 0.00 0.00 66 1013.9
20260508064600 48 0 4.0 12.0 0.00 0.00 0.00 68 1014.3
20260508064059 49 166 6.0 10.0 0.00 0.00 0.00 68 1014.5
20260508063559 49 173 1.0 11.0 0.00 0.00 0.00 65 1014.4
20260508063100 49 134 3.0 11.0 0.00 0.00 0.00 64 1013.9
20260508062559 49 132 6.0 11.0 0.00 0.00 0.00 63 1013.7
20260508062059 49 117 5.0 12.0 0.00 0.00 0.00 63 1013.8
20260508061604 49 109 5.0 12.0 0.00 0.00 0.00 63 1013.8
20260508061056 49 142 6.0 12.0 0.00 0.00 0.00 63 1013.7
20260508060556 50 127 4.0 14.0 0.00 0.00 0.00 63 1013.8
20260508060121 50 123 7.0 14.0 0.00 0.00 0.00 63 1013.9
20260508055556 50 103 6.0 14.0 0.00 0.00 0.00 62 1013.9
20260508055059 50 112 4.0 13.0 0.00 0.00 0.00 63 1013.9
20260508054642 50 106 5.0 12.0 0.00 0.00 0.00 62 1013.9
20260508054056 50 124 6.0 12.0 0.00 0.00 0.00 62 1013.9
20260508053558 50 107 5.0 10.0 0.00 0.00 0.00 62 1013.9
20260508053059 50 136 5.0 10.0 0.00 0.00 0.00 63 1013.9
20260508052556 49 116 5.0 12.0 0.00 0.00 0.00 63 1014.0
20260508052059 49 111 4.0 12.0 0.00 0.00 0.00 63 1013.9
20260508051600 49 123 3.0 10.0 0.00 0.00 0.00 63 1013.9
20260508051059 49 126 4.0 10.0 0.00 0.00 0.00 64 1014.0
20260508050600 49 105 4.0 9.0 0.00 0.00 0.00 64 1013.9
20260508050057 49 111 4.0 8.0 0.00 0.00 0.00 64 1014.1
20260508045558 49 121 3.0 8.0 0.00 0.00 0.00 64 1014.0
20260508045056 49 124 3.0 8.0 0.00 0.00 0.00 64 1014.1
20260508044557 49 119 3.0 8.0 0.00 0.00 0.00 64 1014.1
20260508044059 49 86 1.0 6.0 0.00 0.00 0.00 64 1014.3
20260508043558 48 0 1.0 6.0 0.00 0.00 0.00 64 1014.3
20260508043101 48 0 0.0 2.0 0.00 0.00 0.00 64 1014.2
20260508042559 48 0 0.0 2.0 0.00 0.00 0.00 64 1014.2
20260508042101 49 0 0.0 1.0 0.00 0.00 0.00 64 1014.1
20260508041556 49 0 0.0 0.0 0.00 0.00 0.00 64 1014.3
20260508041059 49 0 0.0 3.0 0.00 0.00 0.00 63 1014.4
20260508040559 49 0 0.0 4.0 0.00 0.00 0.00 63 1014.3
20260508040100 49 0 0.0 4.0 0.00 0.00 0.00 63 1014.4
20260508035559 49 0 1.0 7.0 0.00 0.00 0.00 63 1014.2
20260508035100 49 103 1.0 7.0 0.00 0.00 0.00 63 1014.0
20260508034558 49 103 2.0 6.0 0.00 0.00 0.00 63 1014.1
20260508034100 48 112 2.0 4.0 0.00 0.00 0.00 63 1014.2
20260508033559 48 0 0.0 4.0 0.00 0.00 0.00 63 1014.1
20260508033059 48 104 0.0 3.0 0.00 0.00 0.00 65 1014.1
20260508032559 48 0 0.0 4.0 0.00 0.00 0.00 65 1014.1
20260508032101 48 0 0.0 4.0 0.00 0.00 0.00 65 1014.0
20260508031602 48 0 0.0 4.0 0.00 0.00 0.00 64 1014.0
20260508031101 48 0 0.0 2.0 0.00 0.00 0.00 64 1013.9
20260508030602 48 0 0.0 2.0 0.00 0.00 0.00 64 1013.9
20260508030109 48 0 0.0 3.0 0.00 0.00 0.00 63 1014.0
20260508025601 48 0 0.0 4.0 0.00 0.00 0.00 63 1013.9
20260508025059 48 0 0.0 4.0 0.00 0.00 0.00 63 1014.0
20260508024617 48 109 0.0 3.0 0.00 0.00 0.00 63 1014.1
20260508024101 48 110 0.0 3.0 0.00 0.00 0.00 63 1014.0
20260508023602 49 0 0.0 2.0 0.00 0.00 0.00 62 1014.0
20260508023059 49 0 0.0 3.0 0.00 0.00 0.00 62 1014.1
20260508022602 49 0 0.0 3.0 0.00 0.00 0.00 62 1013.9
20260508022101 49 104 0.0 0.0 0.00 0.00 0.00 62 1013.8
20260508021602 49 0 0.0 0.0 0.00 0.00 0.00 62 1014.0
20260508021059 49 0 0.0 0.0 0.00 0.00 0.00 62 1014.1
20260508020602 49 0 0.0 0.0 0.00 0.00 0.00 62 1014.1
20260508020108 49 0 0.0 0.0 0.00 0.00 0.00 62 1014.0
20260508015559 49 0 0.0 0.0 0.00 0.00 0.00 62 1013.9
20260508015059 49 0 0.0 2.0 0.00 0.00 0.00 62 1014.0
20260508014625 49 0 0.0 2.0 0.00 0.00 0.00 62 1013.9
20260508014058 49 0 0.0 2.0 0.00 0.00 0.00 62 1014.1
20260508013559 49 0 0.0 2.0 0.00 0.00 0.00 62 1014.0
20260508013101 49 0 0.0 2.0 0.00 0.00 0.00 62 1014.0
20260508012601 49 0 0.0 1.0 0.00 0.00 0.00 61 1014.0
20260508012058 49 0 0.0 0.0 0.00 0.00 0.00 61 1013.9
20260508011615 50 0 0.0 0.0 0.00 0.00 0.00 60 1014.0
20260508011100 50 0 0.0 1.0 0.00 0.00 0.00 60 1013.9
20260508010559 50 0 0.0 1.0 0.00 0.00 0.00 60 1013.9
20260508005601 51 0 0.0 2.0 0.00 0.00 0.00 58 1013.9
20260508005101 51 0 0.0 2.0 0.00 0.00 0.00 58 1013.9
20260508004600 51 0 0.0 2.0 0.00 0.00 0.00 58 1013.8
20260508004101 52 0 0.0 2.0 0.00 0.00 0.00 58 1013.7
20260508003605 52 0 0.0 2.0 0.00 0.00 0.00 58 1013.7
20260508003059 53 0 0.0 3.0 0.00 0.00 0.00 57 1013.8
20260508002559 53 0 0.0 3.0 0.00 0.00 0.00 57 1013.6
20260508002056 53 0 0.0 3.0 0.00 0.00 0.00 56 1013.6
20260508001602 54 0 0.0 6.0 0.00 0.00 0.00 55 1013.8
20260508001059 54 292 0.0 6.0 0.00 0.00 0.00 54 1013.6
20260508000555 54 282 0.0 6.0 0.00 0.00 0.00 54 1013.5
20260508000057 55 0 1.0 6.0 0.00 0.00 0.00 55 1013.6
20260507235559 55 287 1.0 8.0 0.00 0.00 0.00 54 1013.5
20260507235056 55 301 3.0 8.0 0.00 0.00 0.00 52 1013.6
20260507234600 55 279 2.0 7.0 0.00 0.00 0.00 52 1013.6
20260507234101 55 300 2.0 7.0 0.00 0.00 0.00 53 1013.6
20260507233601 56 273 1.0 6.0 0.00 0.00 0.00 52 1013.5
20260507233059 56 304 2.0 6.0 0.00 0.00 0.00 53 1013.6
20260507232556 56 323 2.0 8.0 0.00 0.00 0.00 52 1013.5
20260507232058 56 334 1.0 8.0 0.00 0.00 0.00 51 1013.5
20260507231558 56 327 3.0 8.0 0.00 0.00 0.00 51 1013.5
20260507231103 57 313 3.0 10.0 0.00 0.00 0.00 51 1013.5
20260507230557 57 321 3.0 11.0 0.00 0.00 0.00 51 1013.4
20260507230059 57 320 4.0 11.0 0.00 0.00 0.00 51 1013.5
20260507225558 57 319 5.0 10.0 0.00 0.00 0.00 50 1013.5
20260507225059 57 333 5.0 10.0 0.00 0.00 0.00 50 1013.4
20260507224604 57 333 5.0 11.0 0.00 0.00 0.00 50 1013.6
20260507224056 58 309 4.0 11.0 0.00 0.00 0.00 49 1013.6
20260507223601 58 279 4.0 12.0 0.00 0.00 0.00 50 1013.5
20260507223055 58 281 4.0 12.0 0.00 0.00 0.00 47 1013.6
20260507222556 58 316 6.0 12.0 0.00 0.00 0.00 48 1013.6
20260507222056 58 284 3.0 13.0 0.00 0.00 0.00 50 1013.7
20260507221558 58 317 4.0 14.0 0.00 0.00 0.00 49 1013.7
20260507221103 58 315 3.0 16.0 0.00 0.00 0.00 48 1013.7
20260507220557 59 301 6.0 16.0 0.00 0.00 0.00 47 1013.6
20260507220057 59 302 5.0 13.0 0.00 0.00 0.00 48 1013.7
20260507215557 59 294 5.0 13.0 0.00 0.00 0.00 49 1013.7
20260507215056 58 312 5.0 13.0 0.00 0.00 0.00 50 1013.6
20260507214559 58 342 6.0 13.0 0.00 0.00 0.00 49 1013.8
20260507214056 57 34 7.0 13.0 0.00 0.00 0.00 50 1013.7
20260507213556 57 35 7.0 12.0 0.00 0.00 0.00 51 1013.6
20260507213058 57 339 8.0 15.0 0.00 0.00 0.00 51 1013.6
20260507212604 56 346 6.0 15.0 0.00 0.00 0.00 53 1013.6
20260507212101 56 355 8.0 14.0 0.00 0.00 0.00 51 1013.6
20260507211606 57 26 5.0 13.0 0.00 0.00 0.00 50 1013.4
20260507211101 58 295 4.0 13.0 0.00 0.00 0.00 49 1013.5
20260507210601 58 333 3.0 16.0 0.00 0.00 0.00 50 1013.4
20260507210104 58 355 4.0 16.0 0.00 0.00 0.00 51 1013.5
20260507205559 58 321 10.0 16.0 0.00 0.00 0.00 51 1013.5
20260507205100 57 317 5.0 15.0 0.00 0.00 0.00 53 1013.5
20260507204601 57 339 6.0 16.0 0.00 0.00 0.00 52 1013.4
20260507204059 57 29 7.0 16.0 0.00 0.00 0.00 54 1013.4
20260507203559 56 24 5.0 19.0 0.00 0.00 0.00 53 1013.3
20260507203100 57 34 8.0 19.0 0.00 0.00 0.00 52 1013.4
20260507202600 58 34 10.0 19.0 0.00 0.00 0.00 52 1013.4
20260507202101 57 345 2.0 14.0 0.00 0.00 0.00 52 1013.3
20260507201600 58 331 8.0 14.0 0.00 0.00 0.00 52 1013.3
20260507201100 57 318 5.0 14.0 0.00 0.00 0.00 54 1013.4
20260507200600 57 355 8.0 16.0 0.00 0.00 0.00 53 1013.5
20260507200100 57 279 9.0 18.0 0.00 0.00 0.00 52 1013.6
20260507195559 58 324 8.0 18.0 0.00 0.00 0.00 53 1013.5
20260507195102 58 360 9.0 18.0 0.00 0.00 0.00 54 1013.5
20260507194600 58 329 6.0 15.0 0.00 0.00 0.00 56 1013.5
20260507194103 57 333 7.0 17.0 0.00 0.00 0.00 55 1013.6
20260507193601 57 318 8.0 17.0 0.00 0.00 0.00 54 1013.7
20260507193100 57 360 8.0 19.0 0.00 0.00 0.00 53 1013.6
20260507192558 58 355 6.0 19.0 0.00 0.00 0.00 53 1013.7
20260507192100 58 298 9.0 15.0 0.00 0.00 0.00 54 1013.6
20260507191601 58 230 6.0 15.0 0.00 0.00 0.00 54 1013.6
20260507191100 58 246 6.0 15.0 0.00 0.00 0.00 54 1013.7
20260507190600 58 355 8.0 15.0 0.00 0.00 0.00 53 1013.6
20260507190100 58 298 5.0 15.0 0.00 0.00 0.00 54 1013.7
20260507185600 58 330 7.0 15.0 0.00 0.00 0.00 53 1013.9
20260507185100 58 277 6.0 15.0 0.00 0.00 0.00 54 1013.8
20260507184558 58 314 6.0 13.0 0.00 0.00 0.00 54 1013.7
20260507184100 58 328 6.0 17.0 0.00 0.00 0.00 57 1013.8
20260507183603 57 346 8.0 17.0 0.00 0.00 0.00 54 1014.0
20260507183101 57 252 7.0 14.0 0.00 0.00 0.00 54 1013.9
20260507182600 57 326 6.0 16.0 0.00 0.00 0.00 58 1014.0
20260507182102 57 304 8.0 18.0 0.00 0.00 0.00 56 1013.9
20260507181558 57 349 7.0 18.0 0.00 0.00 0.00 54 1013.8
20260507181056 57 294 7.0 18.0 0.00 0.00 0.00 59 1013.8
20260507180556 57 265 8.0 20.0 0.00 0.00 0.00 56 1014.0
20260507175555 57 282 6.0 15.0 0.00 0.00 0.00 57 1013.8
20260507175058 57 302 6.0 15.0 0.00 0.00 0.00 58 1014.1
20260507174613 57 275 7.0 15.0 0.00 0.00 0.00 59 1014.0
20260507174059 57 338 7.0 15.0 0.00 0.00 0.00 58 1014.0
20260507173556 56 298 9.0 15.0 0.00 0.00 0.00 60 1014.2
20260507173104 56 350 7.0 15.0 0.00 0.00 0.00 58 1014.1
20260507172557 56 329 5.0 15.0 0.00 0.00 0.00 57 1014.3
20260507172056 56 284 6.0 14.0 0.00 0.00 0.00 57 1014.3
20260507171610 56 280 6.0 13.0 0.00 0.00 0.00 58 1014.4
20260507171056 56 263 5.0 14.0 0.00 0.00 0.00 60 1014.3
20260507170559 56 298 6.0 14.0 0.00 0.00 0.00 59 1014.4
20260507170058 56 328 6.0 16.0 0.00 0.00 0.00 58 1014.4
20260507165555 56 303 8.0 16.0 0.00 0.00 0.00 58 1014.5
20260507165058 55 246 4.0 16.0 0.00 0.00 0.00 59 1014.5
20260507164603 55 310 8.0 16.0 0.00 0.00 0.00 57 1014.6
20260507164059 55 355 6.0 15.0 0.00 0.00 0.00 58 1014.7
20260507163557 55 277 7.0 15.0 0.00 0.00 0.00 56 1014.7
20260507163100 55 262 7.0 16.0 0.00 0.00 0.00 57 1015.0
20260507162556 55 252 5.0 17.0 0.00 0.00 0.00 58 1015.0
20260507162056 55 322 5.0 17.0 0.00 0.00 0.00 57 1015.0
20260507161603 55 293 6.0 17.0 0.00 0.00 0.00 56 1014.9
20260507161056 55 312 7.0 15.0 0.00 0.00 0.00 57 1014.9
20260507160556 55 266 6.0 14.0 0.00 0.00 0.00 57 1014.8
20260507160056 55 300 5.0 14.0 0.00 0.00 0.00 58 1014.8
20260507155555 54 321 6.0 14.0 0.00 0.00 0.00 58 1014.8
20260507155056 54 259 7.0 14.0 0.00 0.00 0.00 56 1014.7
20260507154601 54 283 5.0 13.0 0.00 0.00 0.00 56 1014.5
20260507154055 54 338 6.0 12.0 0.00 0.00 0.00 59 1014.5
20260507153555 54 333 6.0 14.0 0.00 0.00 0.00 59 1014.5
20260507153103 54 260 6.0 14.0 0.00 0.00 0.00 59 1014.6
20260507152558 54 286 6.0 14.0 0.00 0.00 0.00 57 1014.5
20260507152100 54 277 8.0 13.0 0.00 0.00 0.00 57 1014.4
20260507151630 54 246 5.0 13.0 0.00 0.00 0.00 60 1014.3
20260507151100 54 297 5.0 13.0 0.00 0.00 0.00 61 1014.4
20260507150600 53 254 5.0 13.0 0.00 0.00 0.00 60 1014.4
20260507150103 53 234 6.0 13.0 0.00 0.00 0.00 59 1014.4
20260507145600 53 306 6.0 11.0 0.00 0.00 0.00 59 1014.3
20260507145059 53 267 6.0 15.0 0.00 0.00 0.00 58 1014.5
20260507144600 53 286 6.0 15.0 0.00 0.00 0.00 58 1014.5
20260507144100 53 304 6.0 12.0 0.00 0.00 0.00 59 1014.5
20260507143559 53 321 5.0 11.0 0.00 0.00 0.00 61 1014.5
20260507143059 52 291 3.0 14.0 0.00 0.00 0.00 61 1014.6
20260507142600 52 311 5.0 14.0 0.00 0.00 0.00 60 1014.5
20260507142102 52 341 4.0 11.0 0.00 0.00 0.00 60 1014.6
20260507141100 52 320 6.0 12.0 0.00 0.00 0.00 62 1014.7
20260507140559 52 316 3.0 12.0 0.00 0.00 0.00 62 1014.7
20260507135600 51 240 6.0 13.0 0.00 0.00 0.00 63 1014.6
20260507135100 50 325 5.0 13.0 0.00 0.00 0.00 63 1014.6
20260507134611 50 300 5.0 11.0 0.00 0.00 0.00 62 1014.8
20260507134059 50 284 4.0 12.0 0.00 0.00 0.00 63 1014.7
20260507133559 50 313 6.0 12.0 0.00 0.00 0.00 62 1014.9
20260507133116 50 290 3.0 9.0 0.00 0.00 0.00 63 1014.9
20260507132600 50 328 3.0 9.0 0.00 0.00 0.00 65 1014.9
20260507132100 49 327 3.0 9.0 0.00 0.00 0.00 63 1014.9
20260507131610 49 321 3.0 9.0 0.00 0.00 0.00 63 1015.0
20260507131100 49 323 4.0 11.0 0.00 0.00 0.00 63 1015.0
20260507130600 49 355 4.0 11.0 0.00 0.00 0.00 64 1015.0
20260507130113 48 349 2.0 10.0 0.00 0.00 0.00 65 1014.9
20260507125600 48 336 3.0 10.0 0.00 0.00 0.00 65 1015.0
20260507125100 48 298 3.0 10.0 0.00 0.00 0.00 65 1014.9
20260507124636 48 309 3.0 9.0 0.00 0.00 0.00 68 1014.9
20260507124100 47 315 3.0 9.0 0.00 0.00 0.00 68 1014.9
20260507123600 47 304 3.0 9.0 0.00 0.00 0.00 68 1014.9
20260507123110 47 288 3.0 9.0 0.00 0.00 0.00 70 1014.9
20260507122559 47 322 3.0 8.0 0.00 0.00 0.00 71 1014.9
20260507122059 46 286 2.0 8.0 0.00 0.00 0.00 72 1014.9
20260507121100 45 278 0.0 6.0 0.00 0.00 0.00 74 1014.9
20260507120600 45 0 1.0 6.0 0.00 0.00 0.00 74 1015.0
20260507120150 44 329 1.0 5.0 0.00 0.00 0.00 75 1015.0
20260507115600 44 304 2.0 5.0 0.00 0.00 0.00 76 1014.9
20260507115104 43 281 2.0 8.0 0.00 0.00 0.00 77 1014.8
20260507114613 43 342 1.0 8.0 0.00 0.00 0.00 78 1014.9
20260507114100 42 327 2.0 6.0 0.00 0.00 0.00 79 1014.9
20260507113604 41 296 1.0 8.0 0.00 0.00 0.00 80 1014.7
20260507113058 41 311 1.0 8.0 0.00 0.00 0.00 81 1014.9
20260507112602 41 321 1.0 6.0 0.00 0.00 0.00 81 1014.9
20260507112059 40 283 1.0 7.0 0.00 0.00 0.00 82 1014.9
20260507111558 40 284 1.0 7.0 0.00 0.00 0.00 82 1014.7
20260507111059 40 306 1.0 7.0 0.00 0.00 0.00 82 1014.6
20260507110602 40 293 1.0 5.0 0.00 0.00 0.00 82 1014.5
20260507110059 40 281 1.0 7.0 0.00 0.00 0.00 82 1014.4
20260507105556 39 288 1.0 7.0 0.00 0.00 0.00 82 1014.4
20260507105058 39 302 2.0 7.0 0.00 0.00 0.00 81 1014.3